Time [hr],Date,AE,AE1ch,AE2ch,Temperature,Humidity,Vaper Deficit,Illuminance,CO2,Pressure,SoilTemp,SoilWater,SolutionEC,Dielectricity,PoreEC,SoilEC,DC1ch,DC2ch,MASUA0010015,MASUA0010014,MASUA0010015
0,2023/02/01 00:00,,,,11.32,80.03,10.23,0,803,0,17.65,26.89,1.7729,14.57,2.8606,0.3690,,,
1,2023/02/01 01:00,1,1,0,11.25,80.12,10.18,0,809,0,17.73,26.88,1.7744,14.56,2.8646,0.3693,,,
2,2023/02/01 02:00,,,,12.06,79.51,10.71,0,800,0,17.55,26.82,1.7903,14.53,2.8963,0.3718,,,
3,2023/02/01 03:00,,,,12.11,78.82,10.75,0,773,0,17.23,26.87,1.7908,14.55,2.8926,0.3718,,,
4,2023/02/01 04:00,,,,12.01,78.98,10.68,0,768,0,17.25,26.84,1.7805,14.53,2.8790,0.3694,,,
5,2023/02/01 05:00,,,,12.28,78.62,10.86,0,764,0,17.03,26.84,1.7815,14.54,2.8801,0.3693,,,
6,2023/02/01 06:00,,,,13.76,78.56,11.90,56,791,0,17.00,26.80,1.7908,14.51,2.9001,0.3708,,,
7,2023/02/01 07:00,,,,15.30,80.23,13.08,1007,790,0,16.82,26.83,1.8005,14.53,2.9120,0.3728,,,
8,2023/02/01 08:00,,,,20.43,73.09,17.75,5644,677,0,16.69,26.79,1.7858,14.51,2.8923,0.3692,,,
9,2023/02/01 09:00,,,,25.26,72.69,23.39,7492,559,0,16.79,26.84,1.7954,14.53,2.9034,0.3717,,,
10,2023/02/01 10:00,,,,26.96,76.87,25.71,7624,524,0,16.79,26.84,1.7919,14.53,2.8976,0.3710,,,
11,2023/02/01 11:00,,,,27.49,79.54,26.48,4591,510,0,17.09,26.90,1.7958,14.57,2.8975,0.3728,,,
12,2023/02/01 12:00,1,1,0,28.87,75.40,28.56,5720,548,0,17.27,26.89,1.7786,14.57,2.8702,0.3695,,,
13,2023/02/01 13:00,,,,29.64,74.41,29.79,6193,551,0,17.59,27.00,1.7663,14.64,2.8386,0.3685,,,
14,2023/02/01 14:00,,,,28.97,78.31,28.72,5482,590,0,18.17,26.95,1.7579,14.60,2.8309,0.3672,,,
15,2023/02/01 15:00,,,,26.26,80.03,24.74,3247,560,0,18.47,27.02,1.7668,14.65,2.8379,0.3702,,,
16,2023/02/01 16:00,,,,21.26,80.36,18.62,1302,519,0,18.60,27.07,1.7565,14.68,2.8156,0.3687,,,
17,2023/02/01 17:00,,,,19.08,81.83,16.39,22,575,0,18.62,27.11,1.7581,14.71,2.8140,0.3694,,,
18,2023/02/01 18:00,,,,18.38,81.38,15.73,0,648,0,18.87,27.07,1.7587,14.68,2.8193,0.3696,,,
19,2023/02/01 19:00,,,,14.46,80.23,12.43,0,695,0,18.81,27.06,1.7657,14.67,2.8320,0.3709,,,
20,2023/02/01 20:00,1,1,0,11.88,80.99,10.60,0,720,0,18.62,27.07,1.7693,14.68,2.8363,0.3714,,,
21,2023/02/01 21:00,,,,10.61,81.32,9.78,0,736,0,18.58,26.99,1.7528,14.63,2.8179,0.3672,,,
22,2023/02/01 22:00,,,,10.27,82.69,9.57,0,741,0,18.27,26.99,1.7751,14.63,2.8543,0.3713,,,
23,2023/02/01 23:00,1,1,0,10.67,83.18,9.82,0,737,0,18.25,26.91,1.7666,14.58,2.8490,0.3688,,,
24,2023/02/02 00:00,,,,10.81,83.51,9.91,0,733,0,17.82,26.88,1.7722,14.56,2.8609,0.3691,,,
25,2023/02/02 01:00,,,,11.13,83.65,10.10,0,726,0,17.65,26.85,1.7699,14.54,2.8602,0.3680,,,
26,2023/02/02 02:00,,,,11.52,83.75,10.35,0,707,0,17.48,26.86,1.7692,14.55,2.8582,0.3677,,,
27,2023/02/02 03:00,,,,11.71,83.39,10.48,0,694,0,17.25,26.75,1.7675,14.48,2.8678,0.3660,,,
28,2023/02/02 04:00,,,,11.70,82.88,10.48,0,686,0,17.08,26.82,1.7753,14.52,2.8725,0.3679,,,
29,2023/02/02 05:00,,,,11.75,82.81,10.51,0,688,0,17.02,26.81,1.7687,14.52,2.8628,0.3664,,,
30,2023/02/02 06:00,,,,13.18,83.43,11.48,49,707,0,16.83,26.80,1.7706,14.51,2.8667,0.3664,,,
31,2023/02/02 07:00,,,,15.33,83.38,13.10,1045,709,0,16.81,26.76,1.7636,14.49,2.8598,0.3646,,,
32,2023/02/02 08:00,,,,20.24,79.12,17.55,3808,628,0,16.83,26.79,1.7699,14.50,2.8670,0.3661,,,
33,2023/02/02 09:00,,,,23.88,71.24,21.64,7727,549,0,16.81,26.76,1.7966,14.48,2.9138,0.3713,,,
34,2023/02/02 10:00,2,2,0,26.26,73.87,24.74,9717,531,0,17.02,26.82,1.7708,14.52,2.8656,0.3669,,,
35,2023/02/02 11:00,,,,27.18,73.74,26.03,5135,522,0,17.33,26.83,1.7637,14.53,2.8529,0.3660,,,
36,2023/02/02 12:00,,,,27.26,73.95,26.14,5619,527,0,17.39,26.87,1.7705,14.55,2.8597,0.3678,,,
37,2023/02/02 13:00,,,,28.08,73.99,27.36,7293,514,0,17.69,26.84,1.7629,14.54,2.8502,0.3666,,,
38,2023/02/02 14:00,,,,25.66,76.33,23.92,7843,525,0,17.88,26.91,1.7611,14.58,2.8397,0.3671,,,
39,2023/02/02 15:00,,,,21.68,77.64,19.09,4732,516,0,18.49,26.95,1.7445,14.60,2.8094,0.3650,,,
40,2023/02/02 16:00,,,,19.04,81.77,16.36,624,518,0,18.59,27.03,1.7505,14.65,2.8107,0.3670,,,
41,2023/02/02 17:00,,,,18.79,81.51,16.12,15,587,0,18.37,27.04,1.7459,14.66,2.8019,0.3658,,,
42,2023/02/02 18:00,,,,18.83,80.91,16.16,0,654,0,18.58,27.01,1.7559,14.64,2.8211,0.3680,,,
43,2023/02/02 19:00,,,,14.16,79.66,12.20,0,684,0,18.67,26.99,1.7433,14.63,2.8034,0.3653,,,
44,2023/02/02 20:00,,,,11.78,81.23,10.52,0,698,0,18.47,26.95,1.7376,14.61,2.7975,0.3635,,,
45,2023/02/02 21:00,,,,10.89,82.31,9.96,0,699,0,18.32,26.92,1.7580,14.59,2.8336,0.3673,,,
46,2023/02/02 22:00,,,,11.03,83.16,10.05,0,714,0,18.33,26.85,1.7678,14.54,2.8574,0.3687,,,
47,2023/02/02 23:00,,,,11.22,83.56,10.16,0,726,0,17.76,26.83,1.7590,14.53,2.8451,0.3657,,,
48,2023/02/03 00:00,,,,11.32,83.49,10.23,0,724,0,17.93,26.84,1.7511,14.54,2.8314,0.3645,,,
49,2023/02/03 01:00,,,,11.37,83.39,10.26,0,724,0,17.58,26.81,1.7518,14.52,2.8353,0.3638,,,
50,2023/02/03 02:00,1,1,0,11.48,83.59,10.33,0,723,0,17.25,26.75,1.7794,14.48,2.8863,0.3685,,,
51,2023/02/03 03:00,,,,11.56,83.33,10.38,0,716,0,17.12,26.71,1.7674,14.46,2.8713,0.3654,,,
52,2023/02/03 04:00,,,,11.64,83.19,10.44,0,716,0,17.32,26.69,1.7630,14.44,2.8664,0.3647,,,
53,2023/02/03 05:00,,,,11.76,83.02,10.52,0,722,0,17.11,26.62,1.7729,14.40,2.8901,0.3658,,,
54,2023/02/03 06:00,2,2,0,13.41,82.82,11.65,68,752,0,16.94,26.65,1.7770,14.41,2.8941,0.3666,,,
55,2023/02/03 07:00,1,1,0,15.49,82.70,13.23,1290,748,0,16.91,26.61,1.7635,14.39,2.8754,0.3635,,,
56,2023/02/03 08:00,,,,19.74,79.67,17.05,4757,679,0,16.86,26.64,1.7836,14.41,2.9051,0.3678,,,
57,2023/02/03 09:00,1,1,0,22.85,76.86,20.41,7819,562,0,16.92,26.63,1.7918,14.40,2.9204,0.3695,,,
58,2023/02/03 10:00,1,0,1,23.67,79.97,21.38,9498,525,0,17.05,26.75,1.7948,14.48,2.9112,0.3714,,,
59,2023/02/03 11:00,,,,25.10,80.50,23.18,8695,473,0,17.28,26.84,1.7610,14.53,2.8478,0.3654,,,
60,2023/02/03 12:00,,,,22.52,80.53,20.03,7085,502,0,17.29,26.82,1.7664,14.52,2.8582,0.3664,,,
61,2023/02/03 13:00,1,1,0,21.10,80.17,18.46,7096,540,0,17.70,26.91,1.7648,14.58,2.8455,0.3676,,,
62,2023/02/03 14:00,,,,20.18,80.29,17.49,4822,583,0,17.70,26.87,1.7579,14.56,2.8386,0.3658,,,
63,2023/02/03 15:00,,,,19.74,79.48,17.05,2956,654,0,17.92,26.85,1.7495,14.54,2.8275,0.3642,,,
64,2023/02/03 16:00,1,1,0,19.63,81.58,16.94,713,654,0,18.10,26.86,1.7612,14.55,2.8453,0.3670,,,
65,2023/02/03 17:00,,,,19.32,81.62,16.64,24,702,0,17.86,26.89,1.7511,14.57,2.8263,0.3648,,,
66,2023/02/03 18:00,,,,20.08,81.18,17.39,0,754,0,18.24,26.89,1.7443,14.57,2.8148,0.3640,,,
67,2023/02/03 19:00,1,1,0,15.32,81.43,13.09,0,763,0,18.25,26.90,1.7545,14.57,2.8306,0.3662,,,
68,2023/02/03 20:00,,,,13.14,83.04,11.46,0,770,0,18.11,26.88,1.7636,14.56,2.8475,0.3677,,,
69,2023/02/03 21:00,,,,12.17,83.61,10.79,0,784,0,17.91,26.85,1.7535,14.54,2.8342,0.3650,,,
70,2023/02/03 22:00,1,1,0,11.38,83.89,10.26,0,807,0,17.96,26.83,1.7592,14.53,2.8453,0.3662,,,
71,2023/02/03 23:00,,,,10.86,83.73,9.93,0,821,0,17.64,26.84,1.7520,14.54,2.8322,0.3642,,,
72,2023/02/04 00:00,,,,11.01,84.15,10.03,0,845,0,17.75,26.81,1.7577,14.52,2.8453,0.3653,,,
73,2023/02/04 01:00,,,,11.36,84.03,10.26,0,845,0,17.41,26.79,1.7536,14.51,2.8404,0.3637,,,
74,2023/02/04 02:00,,,,11.41,83.85,10.29,0,850,0,17.41,26.79,1.7594,14.50,2.8501,0.3649,,,
75,2023/02/04 03:00,,,,11.12,82.79,10.10,0,848,0,17.27,26.71,1.7577,14.45,2.8562,0.3637,,,
76,2023/02/04 04:00,,,,11.43,82.64,10.30,0,829,0,17.06,26.61,1.7753,14.39,2.8949,0.3661,,,
77,2023/02/04 05:00,,,,11.99,83.37,10.66,0,819,0,16.73,26.65,1.7885,14.42,2.9122,0.3686,,,
78,2023/02/04 06:00,,,,13.80,83.60,11.93,56,836,0,16.84,26.59,1.7746,14.38,2.8968,0.3654,,,
79,2023/02/04 07:00,,,,15.04,83.12,12.87,1125,831,0,16.74,26.55,1.7807,14.36,2.9102,0.3662,,,
80,2023/02/04 08:00,,,,20.97,76.05,18.31,5997,694,0,16.66,26.64,1.7789,14.41,2.8980,0.3664,,,
81,2023/02/04 09:00,,,,25.06,77.40,23.13,7198,572,0,16.72,26.62,1.7824,14.40,2.9061,0.3671,,,
82,2023/02/04 10:00,1,1,0,28.47,73.59,27.95,9059,552,0,16.83,26.57,1.7596,14.37,2.8742,0.3622,,,
83,2023/02/04 11:00,3,3,0,27.97,75.99,27.19,6113,565,0,17.04,26.78,1.7697,14.50,2.8675,0.3664,,,
84,2023/02/04 12:00,2,2,0,28.45,74.37,27.91,6213,591,0,17.43,26.77,1.7583,14.49,2.8503,0.3646,,,
85,2023/02/04 13:00,1,1,0,29.63,71.43,29.77,7562,579,0,17.66,26.82,1.7519,14.52,2.8345,0.3641,,,
86,2023/02/04 14:00,,,,28.51,77.88,28.01,6623,610,0,17.97,26.82,1.7444,14.52,2.8224,0.3630,,,
87,2023/02/04 15:00,,,,26.76,77.54,25.43,3941,575,0,18.35,26.92,1.7481,14.58,2.8182,0.3652,,,
88,2023/02/04 16:00,1,0,1,22.73,79.42,20.27,1797,502,0,18.79,26.96,1.7301,14.61,2.7853,0.3625,,,
89,2023/02/04 17:00,,,,19.42,81.93,16.73,34,553,0,18.63,26.96,1.7246,14.61,2.7761,0.3611,,,
90,2023/02/04 18:00,,,,18.95,81.03,16.27,0,623,0,18.68,27.00,1.7483,14.64,2.8095,0.3665,,,
91,2023/02/04 19:00,,,,14.84,80.36,12.72,0,693,0,18.86,26.90,1.7414,14.57,2.8092,0.3645,,,
92,2023/02/04 20:00,,,,12.33,81.74,10.89,0,732,0,18.56,26.88,1.7507,14.56,2.8261,0.3658,,,
93,2023/02/04 21:00,,,,10.83,81.60,9.92,0,733,0,18.41,26.88,1.7378,14.56,2.8055,0.3628,,,
94,2023/02/04 22:00,1,1,0,10.62,82.37,9.79,0,750,0,18.22,26.89,1.7479,14.57,2.8211,0.3647,,,
95,2023/02/04 23:00,,,,10.93,82.01,9.98,0,748,0,18.01,26.83,1.7385,14.53,2.8117,0.3619,,,
96,2023/02/05 00:00,,,,11.39,81.77,10.27,0,742,0,17.82,26.81,1.7441,14.52,2.8231,0.3626,,,
97,2023/02/05 01:00,,,,11.53,81.34,10.37,0,746,0,17.79,26.73,1.7525,14.47,2.8450,0.3637,,,
98,2023/02/05 02:00,,,,11.85,80.87,10.58,0,736,0,17.28,26.65,1.7696,14.42,2.8816,0.3656,,,
99,2023/02/05 03:00,,,,11.96,80.16,10.65,0,726,0,17.24,26.53,1.7704,14.34,2.8960,0.3647,,,
100,2023/02/05 04:00,,,,12.66,80.42,11.12,1,737,0,16.99,26.63,1.7701,14.40,2.8847,0.3651,,,
101,2023/02/05 05:00,,,,14.78,80.05,12.67,301,768,0,16.97,26.60,1.7562,14.38,2.8656,0.3619,,,
102,2023/02/05 06:00,,,,18.30,81.24,15.66,2274,736,0,16.81,26.58,1.7867,14.38,2.9166,0.3678,,,
103,2023/02/05 07:00,,,,23.81,72.66,21.55,6606,601,0,16.87,26.61,1.7785,14.39,2.9008,0.3665,,,
104,2023/02/05 08:00,,,,26.04,76.10,24.43,5030,555,0,17.05,26.55,1.7762,14.35,2.9032,0.3658,,,
105,2023/02/05 09:00,,,,26.39,74.74,24.91,5828,608,0,16.85,26.53,1.7703,14.34,2.8956,0.3641,,,
106,2023/02/05 10:00,,,,27.10,72.90,25.92,6371,658,0,14.95,26.56,1.7842,14.36,2.9152,0.3640,,,
107,2023/02/05 11:00,2,0,2,28.51,74.61,28.00,4292,573,0,17.03,26.64,1.7554,14.41,2.8593,0.3622,,,
108,2023/02/05 12:00,,,,29.08,71.75,28.90,5219,591,0,17.65,26.71,1.7496,14.46,2.8421,0.3626,,,
109,2023/02/05 13:00,,,,30.03,69.19,30.42,6940,585,0,18.17,26.83,1.7415,14.53,2.8172,0.3628,,,
110,2023/02/05 14:00,,,,28.41,73.24,27.85,5540,613,0,18.33,26.81,1.7320,14.52,2.8037,0.3609,,,
111,2023/02/05 15:00,,,,27.56,74.56,26.58,3468,593,0,18.80,26.82,1.7160,14.52,2.7767,0.3584,,,
112,2023/02/05 16:00,,,,23.36,77.80,21.01,1551,508,0,19.06,26.82,1.7259,14.52,2.7932,0.3609,,,
113,2023/02/05 17:00,,,,19.38,81.15,16.69,39,566,0,18.87,26.87,1.7281,14.56,2.7908,0.3615,,,
114,2023/02/05 18:00,,,,18.63,82.50,15.96,0,643,0,19.10,26.87,1.7277,14.56,2.7900,0.3618,,,
115,2023/02/05 19:00,,,,15.89,81.61,13.56,0,699,0,18.77,26.83,1.7284,14.53,2.7961,0.3610,,,
116,2023/02/05 20:00,,,,13.60,82.43,11.79,0,716,0,18.68,26.86,1.7343,14.55,2.8020,0.3624,,,
117,2023/02/05 21:00,,,,11.86,82.55,10.58,0,725,0,18.76,26.87,1.7289,14.55,2.7924,0.3615,,,
118,2023/02/05 22:00,1,1,0,10.86,82.50,9.94,0,748,0,18.58,26.85,1.7304,14.54,2.7971,0.3613,,,
119,2023/02/05 23:00,,,,10.87,83.09,9.95,0,752,0,18.48,26.82,1.7366,14.52,2.8101,0.3622,,,
120,2023/02/06 00:00,,,,11.04,82.40,10.05,3,743,0,18.16,26.79,1.7296,14.50,2.8022,0.3599,,,
121,2023/02/06 01:00,,,,11.04,81.79,10.05,3,738,0,17.95,26.66,1.7436,14.42,2.8384,0.3615,,,
122,2023/02/06 02:00,,,,11.34,81.80,10.24,0,738,0,17.77,26.62,1.7485,14.40,2.8509,0.3618,,,
123,2023/02/06 03:00,,,,11.42,81.50,10.29,0,737,0,17.68,26.59,1.7450,14.38,2.8482,0.3607,,,
124,2023/02/06 04:00,,,,11.44,81.19,10.31,0,732,0,17.43,26.55,1.7503,14.35,2.8611,0.3611,,,
125,2023/02/06 05:00,,,,11.61,81.20,10.42,0,727,0,17.35,26.55,1.7490,14.36,2.8584,0.3607,,,
126,2023/02/06 06:00,,,,14.06,80.76,12.12,84,748,0,17.31,26.58,1.7439,14.38,2.8467,0.3598,,,
127,2023/02/06 07:00,,,,16.01,81.17,13.65,1319,739,0,17.03,26.55,1.7381,14.36,2.8406,0.3579,,,
128,2023/02/06 08:00,1,1,0,21.35,74.45,18.73,5640,629,0,16.99,26.55,1.7492,14.36,2.8588,0.3601,,,
129,2023/02/06 09:00,,,,24.58,73.61,22.52,5992,535,0,16.83,26.43,1.7499,14.28,2.8731,0.3590,,,
130,2023/02/06 10:00,,,,27.81,73.98,26.96,8591,564,0,17.26,26.61,1.7418,14.39,2.8407,0.3596,,,
131,2023/02/06 11:00,1,1,0,29.09,75.58,28.91,4649,564,0,17.33,26.63,1.7430,14.40,2.8403,0.3601,,,
132,2023/02/06 12:00,2,2,0,30.61,77.38,31.38,5621,522,0,17.73,26.65,1.7265,14.42,2.8113,0.3575,,,
133,2023/02/06 13:00,,,,30.72,68.96,31.57,7703,524,0,18.06,26.80,1.7330,14.51,2.8064,0.3606,,,
134,2023/02/06 14:00,,,,28.97,73.31,28.71,6027,516,0,18.40,26.80,1.7313,14.51,2.8033,0.3608,,,
135,2023/02/06 15:00,,,,28.23,75.96,27.58,3674,510,0,18.80,26.76,1.7265,14.49,2.7998,0.3601,,,
136,2023/02/06 16:00,,,,23.36,79.40,21.01,1394,495,0,19.05,26.88,1.7261,14.56,2.7863,0.3615,,,
137,2023/02/06 17:00,1,0,1,19.34,81.17,16.65,47,547,0,19.31,26.83,1.7189,14.53,2.7803,0.3599,,,
138,2023/02/06 18:00,,,,18.24,83.16,15.60,0,633,0,19.01,26.79,1.7164,14.50,2.7806,0.3586,,,
139,2023/02/06 19:00,,,,15.62,82.17,13.33,0,711,0,19.07,26.87,1.7066,14.56,2.7562,0.3573,,,
140,2023/02/06 20:00,,,,13.96,82.87,12.05,0,754,0,18.88,26.83,1.7159,14.53,2.7752,0.3586,,,
141,2023/02/06 21:00,,,,13.12,83.80,11.44,0,780,0,18.85,26.83,1.7287,14.53,2.7962,0.3613,,,
142,2023/02/06 22:00,,,,12.39,84.11,10.94,0,787,0,18.68,26.76,1.7294,14.49,2.8041,0.3606,,,
143,2023/02/06 23:00,1,1,0,11.87,84.48,10.58,0,784,0,18.29,26.70,1.7480,14.45,2.8407,0.3633,,,
144,2023/02/07 00:00,,,,11.35,84.20,10.25,0,785,0,18.30,26.62,1.7294,14.40,2.8194,0.3588,,,
145,2023/02/07 01:00,,,,10.77,84.47,9.88,0,773,0,18.11,26.57,1.7202,14.37,2.8092,0.3561,,,
146,2023/02/07 02:00,,,,10.81,84.99,9.91,0,762,0,18.01,26.59,1.7284,14.38,2.8211,0.3578,,,
147,2023/02/07 03:00,1,1,0,10.74,85.13,9.86,0,761,0,17.74,26.59,1.7339,14.38,2.8300,0.3585,,,
148,2023/02/07 04:00,,,,10.92,85.40,9.97,0,761,0,17.58,26.58,1.7445,14.38,2.8477,0.3604,,,
149,2023/02/07 05:00,,,,11.86,85.11,10.58,0,756,0,17.34,26.59,1.7259,14.38,2.8163,0.3563,,,
150,2023/02/07 06:00,,,,14.12,84.47,12.17,57,774,0,17.37,26.55,1.7489,14.35,2.8589,0.3607,,,
151,2023/02/07 07:00,,,,15.16,84.39,12.97,1377,780,0,17.36,26.52,1.7432,14.34,2.8525,0.3592,,,
152,2023/02/07 08:00,,,,20.33,81.06,17.64,3791,679,0,17.17,26.54,1.7359,14.35,2.8379,0.3576,,,
153,2023/02/07 09:00,,,,24.36,79.25,22.24,6760,513,0,17.25,26.55,1.7258,14.35,2.8210,0.3557,,,
154,2023/02/07 10:00,,,,26.84,76.95,25.54,10183,483,0,17.29,26.56,1.7425,14.36,2.8471,0.3593,,,
155,2023/02/07 11:00,,,,28.03,77.78,27.28,8484,494,0,17.70,26.64,1.7128,14.41,2.7906,0.3545,,,
156,2023/02/07 12:00,,,,28.22,76.17,27.56,11283,518,0,17.85,26.57,1.7126,14.37,2.7973,0.3542,,,
157,2023/02/07 13:00,1,1,0,28.89,74.90,28.59,10560,509,0,18.10,26.65,1.7096,14.41,2.7843,0.3545,,,
158,2023/02/07 14:00,,,,27.55,77.81,26.56,7931,516,0,18.62,26.72,1.7191,14.46,2.7916,0.3580,,,
159,2023/02/07 15:00,,,,25.71,81.84,23.99,4221,485,0,18.80,26.87,1.6903,14.55,2.7299,0.3535,,,
160,2023/02/07 16:00,1,0,1,21.76,83.27,19.18,754,489,0,19.03,26.81,1.6952,14.52,2.7436,0.3544,,,
161,2023/02/07 17:00,,,,19.45,82.67,16.75,59,565,0,19.29,26.87,1.6846,14.56,2.7204,0.3531,,,
162,2023/02/07 18:00,,,,18.87,84.62,16.20,0,649,0,18.85,26.84,1.7072,14.54,2.7602,0.3568,,,
163,2023/02/07 19:00,,,,16.81,83.91,14.32,0,705,0,19.39,26.82,1.6934,14.53,2.7398,0.3547,,,
164,2023/02/07 20:00,,,,15.39,84.82,13.15,0,720,0,18.97,26.81,1.7014,14.52,2.7542,0.3556,,,
165,2023/02/07 21:00,1,1,0,14.76,85.11,12.65,0,724,0,19.07,26.75,1.7128,14.48,2.7791,0.3576,,,
166,2023/02/07 22:00,,,,14.35,85.22,12.34,0,726,0,18.86,26.75,1.6940,14.48,2.7479,0.3534,,,
167,2023/02/07 23:00,,,,13.75,85.20,11.90,0,719,0,18.71,26.70,1.6948,14.45,2.7551,0.3529,,,
168,2023/02/08 00:00,,,,13.44,85.36,11.67,0,720,0,18.64,26.65,1.7031,14.42,2.7736,0.3541,,,
169,2023/02/08 01:00,,,,13.05,85.26,11.39,0,715,0,18.60,26.63,1.7151,14.40,2.7954,0.3563,,,
170,2023/02/08 02:00,,,,12.57,84.99,11.06,0,710,0,18.16,26.61,1.6968,14.39,2.7672,0.3517,,,
171,2023/02/08 03:00,,,,12.35,85.31,10.91,0,708,0,18.10,26.61,1.7123,14.39,2.7929,0.3548,,,
172,2023/02/08 04:00,,,,12.42,85.62,10.96,0,709,0,18.07,26.57,1.7205,14.37,2.8099,0.3561,,,
173,2023/02/08 05:00,,,,12.19,85.60,10.80,0,703,0,18.01,26.55,1.6966,14.36,2.7728,0.3509,,,
174,2023/02/08 06:00,,,,13.32,85.87,11.59,85,732,0,17.80,26.55,1.7040,14.35,2.7854,0.3521,,,
175,2023/02/08 07:00,,,,14.45,84.95,12.42,939,740,0,17.69,26.52,1.7100,14.34,2.7982,0.3529,,,
176,2023/02/08 08:00,1,1,0,20.42,79.84,17.74,4761,630,0,17.60,26.50,1.7141,14.33,2.8065,0.3535,,,
177,2023/02/08 09:00,,,,22.39,80.17,19.88,5766,474,0,17.52,26.50,1.7132,14.32,2.8057,0.3531,,,
178,2023/02/08 10:00,,,,24.83,78.78,22.84,8521,453,0,17.61,26.52,1.7021,14.33,2.7857,0.3511,,,
179,2023/02/08 11:00,,,,27.39,77.62,26.34,8245,504,0,17.97,26.56,1.7125,14.36,2.7982,0.3542,,,
180,2023/02/08 12:00,2,2,0,26.06,75.88,24.46,6893,526,0,18.15,26.57,1.7038,14.37,2.7826,0.3528,,,
181,2023/02/08 13:00,,,,26.36,79.64,24.88,8890,431,0,18.34,26.63,1.7128,14.41,2.7906,0.3555,,,
182,2023/02/08 14:00,,,,27.27,78.17,26.17,6940,492,0,18.58,26.66,1.7081,14.43,2.7800,0.3552,,,
183,2023/02/08 15:00,,,,25.71,80.58,23.99,4836,435,0,18.82,26.76,1.6858,14.49,2.7337,0.3517,,,
184,2023/02/08 16:00,,,,22.31,81.55,19.78,1147,413,0,19.00,26.71,1.7091,14.46,2.7768,0.3564,,,
185,2023/02/08 17:00,,,,19.27,82.99,16.58,5,500,0,19.21,26.82,1.6821,14.53,2.7215,0.3521,,,
186,2023/02/08 18:00,,,,18.55,82.99,15.89,0,591,0,19.14,26.83,1.6952,14.53,2.7418,0.3547,,,
187,2023/02/08 19:00,,,,15.17,82.23,12.98,0,666,0,18.86,26.73,1.6986,14.47,2.7579,0.3541,,,
188,2023/02/08 20:00,1,1,0,12.89,82.87,11.28,0,714,0,19.23,26.73,1.6872,14.47,2.7389,0.3524,,,
189,2023/02/08 21:00,,,,11.53,82.77,10.36,0,726,0,18.85,26.68,1.7010,14.44,2.7662,0.3543,,,
190,2023/02/08 22:00,2,2,0,10.59,82.95,9.77,0,736,0,18.65,26.65,1.6920,14.42,2.7552,0.3518,,,
191,2023/02/08 23:00,1,1,0,10.88,82.92,9.95,0,734,0,18.35,26.57,1.7064,14.37,2.7866,0.3537,,,
192,2023/02/09 00:00,,,,11.08,82.85,10.07,0,728,0,18.22,26.56,1.7066,14.36,2.7882,0.3534,,,
193,2023/02/09 01:00,,,,11.29,82.87,10.21,0,721,0,18.11,26.52,1.7095,14.33,2.7975,0.3535,,,
194,2023/02/09 02:00,,,,11.30,82.43,10.21,0,703,0,17.90,26.41,1.7104,14.27,2.8102,0.3525,,,
195,2023/02/09 03:00,,,,11.60,82.85,10.41,0,702,0,17.82,26.50,1.7106,14.32,2.8010,0.3531,,,
196,2023/02/09 04:00,,,,11.42,82.22,10.29,0,704,0,17.67,26.43,1.7184,14.28,2.8220,0.3539,,,
197,2023/02/09 05:00,,,,11.72,82.35,10.49,0,700,0,17.18,26.37,1.7145,14.24,2.8219,0.3518,,,
198,2023/02/09 06:00,,,,12.96,82.85,11.33,114,722,0,17.15,26.38,1.7101,14.25,2.8136,0.3509,,,
199,2023/02/09 07:00,,,,14.94,83.49,12.80,1437,704,0,17.06,26.38,1.7182,14.25,2.8270,0.3525,,,
200,2023/02/09 08:00,,,,20.81,74.06,18.15,4596,583,0,17.06,26.38,1.7200,14.25,2.8290,0.3529,,,
201,2023/02/09 09:00,,,,23.30,72.76,20.94,8437,509,0,17.17,26.43,1.7191,14.28,2.8224,0.3533,,,
202,2023/02/09 10:00,,,,26.04,72.57,24.43,11897,469,0,17.14,26.46,1.7204,14.30,2.8212,0.3537,,,
203,2023/02/09 11:00,3,0,3,26.50,75.55,25.07,4827,497,0,17.37,26.50,1.7153,14.33,2.8087,0.3534,,,
204,2023/02/09 12:00,,,,27.10,72.48,25.92,6052,528,0,17.73,26.49,1.7126,14.32,2.8054,0.3533,,,
205,2023/02/09 13:00,,,,28.52,68.46,28.02,9430,506,0,17.94,26.60,1.7040,14.39,2.7795,0.3528,,,
206,2023/02/09 14:00,,,,26.00,74.63,24.39,7265,444,0,18.37,26.53,1.6982,14.34,2.7783,0.3516,,,
207,2023/02/09 15:00,,,,24.57,74.76,22.50,4171,409,0,18.79,26.70,1.6869,14.45,2.7415,0.3514,,,
208,2023/02/09 16:00,,,,20.85,77.47,18.18,1721,404,0,18.77,26.64,1.6876,14.41,2.7493,0.3510,,,
209,2023/02/09 17:00,,,,18.59,81.40,15.93,57,492,0,18.65,26.57,1.6881,14.36,2.7574,0.3503,,,
210,2023/02/09 18:00,,,,18.45,80.35,15.80,0,576,0,18.89,26.59,1.6860,14.38,2.7517,0.3505,,,
211,2023/02/09 19:00,,,,13.35,79.51,11.61,0,668,0,18.97,26.62,1.6888,14.40,2.7531,0.3514,,,
212,2023/02/09 20:00,1,1,0,11.13,81.40,10.11,0,714,0,18.83,26.62,1.6893,14.40,2.7540,0.3513,,,
213,2023/02/09 21:00,,,,11.01,81.42,10.03,0,723,0,18.44,26.57,1.6869,14.36,2.7555,0.3497,,,
214,2023/02/09 22:00,,,,11.34,80.37,10.24,0,726,0,18.34,26.56,1.6966,14.36,2.7723,0.3515,,,
215,2023/02/09 23:00,,,,11.54,80.21,10.37,0,733,0,18.24,26.46,1.6813,14.30,2.7577,0.3474,,,
216,2023/02/10 00:00,1,1,0,11.64,80.40,10.43,0,734,0,17.95,26.42,1.6983,14.28,2.7892,0.3501,,,
217,2023/02/10 01:00,,,,11.71,80.91,10.48,0,746,0,17.78,26.35,1.6918,14.23,2.7858,0.3480,,,
218,2023/02/10 02:00,,,,11.57,81.58,10.39,0,759,0,17.74,26.37,1.7230,14.25,2.8351,0.3545,,,
219,2023/02/10 03:00,,,,11.60,82.00,10.41,0,760,0,17.43,26.38,1.6944,14.25,2.7874,0.3482,,,
220,2023/02/10 04:00,1,1,0,11.71,83.09,10.48,0,755,0,17.37,26.35,1.7017,14.23,2.8023,0.3494,,,
221,2023/02/10 05:00,1,1,0,11.93,83.17,10.63,0,754,0,17.25,26.36,1.7098,14.24,2.8147,0.3509,,,
222,2023/02/10 06:00,,,,14.03,83.19,12.10,30,777,0,16.97,26.39,1.7185,14.26,2.8255,0.3525,,,
223,2023/02/10 07:00,,,,14.95,83.02,12.80,409,797,0,17.04,26.38,1.7062,14.25,2.8069,0.3500,,,
224,2023/02/10 08:00,,,,16.81,81.62,14.33,1149,796,0,16.96,26.36,1.7133,14.24,2.8206,0.3512,,,
225,2023/02/10 09:00,,,,17.40,80.40,14.84,1250,790,0,16.81,26.33,1.7129,14.22,2.8228,0.3506,,,
226,2023/02/10 10:00,,,,17.67,80.86,15.08,1685,765,0,16.90,26.33,1.7172,14.22,2.8302,0.3516,,,
227,2023/02/10 11:00,1,1,0,18.36,81.03,15.71,2511,717,0,17.11,26.31,1.7058,14.20,2.8140,0.3494,,,
228,2023/02/10 12:00,,,,19.23,81.23,16.54,3112,639,0,16.92,26.38,1.7172,14.25,2.8253,0.3520,,,
229,2023/02/10 13:00,,,,19.46,81.09,16.77,2972,585,0,17.15,26.33,1.7080,14.22,2.8155,0.3501,,,
230,2023/02/10 14:00,,,,18.39,80.91,15.74,957,599,0,17.16,26.35,1.7120,14.23,2.8192,0.3512,,,
231,2023/02/10 15:00,,,,17.44,80.82,14.88,174,657,0,17.09,26.38,1.7045,14.25,2.8043,0.3497,,,
232,2023/02/10 16:00,,,,17.30,80.71,14.75,1,711,0,17.21,26.33,1.7225,14.22,2.8385,0.3532,,,
233,2023/02/10 17:00,,,,15.38,80.78,13.14,0,741,0,17.22,26.41,1.7088,14.27,2.8078,0.3511,,,
234,2023/02/10 18:00,,,,11.42,83.18,10.29,0,724,0,17.34,26.33,1.7207,14.22,2.8360,0.3531,,,
235,2023/02/10 19:00,,,,11.39,84.01,10.27,0,726,0,17.20,26.38,1.7137,14.25,2.8188,0.3518,,,
236,2023/02/10 20:00,,,,11.92,84.24,10.62,0,727,0,17.07,26.37,1.7062,14.24,2.8082,0.3499,,,
237,2023/02/10 21:00,,,,11.10,83.49,10.09,0,718,0,17.23,26.30,1.6969,14.20,2.7996,0.3478,,,
238,2023/02/10 22:00,,,,11.64,84.29,10.43,0,716,0,16.93,26.32,1.7035,14.21,2.8090,0.3488,,,
239,2023/02/10 23:00,,,,11.95,84.25,10.64,0,716,0,16.89,26.33,1.7023,14.22,2.8059,0.3486,,,
240,2023/02/11 00:00,,,,11.93,84.18,10.63,0,718,0,16.71,26.29,1.7210,14.19,2.8408,0.3518,,,
241,2023/02/11 01:00,,,,11.81,83.12,10.55,0,714,0,16.69,26.31,1.7149,14.21,2.8280,0.3507,,,
242,2023/02/11 02:00,,,,11.96,83.23,10.65,0,706,0,16.71,26.30,1.7102,14.20,2.8219,0.3497,,,
243,2023/02/11 03:00,,,,12.01,84.05,10.68,0,700,0,16.47,26.31,1.7042,14.21,2.8110,0.3481,,,
244,2023/02/11 04:00,,,,12.04,84.13,10.70,0,691,0,16.40,26.29,1.7242,14.20,2.8458,0.3520,,,
245,2023/02/11 05:00,,,,12.33,83.85,10.90,0,690,0,16.45,26.21,1.7284,14.14,2.8620,0.3522,,,
246,2023/02/11 06:00,,,,13.92,83.77,12.02,150,710,0,16.14,26.22,1.7233,14.15,2.8520,0.3508,,,
247,2023/02/11 07:00,,,,15.60,84.63,13.32,1739,705,0,16.21,26.24,1.7266,14.16,2.8557,0.3517,,,
248,2023/02/11 08:00,1,1,0,22.48,76.39,19.98,5103,577,0,15.99,26.29,1.7172,14.20,2.8340,0.3499,,,
249,2023/02/11 09:00,,,,25.74,76.11,24.03,10315,495,0,16.18,26.33,1.6793,14.22,2.7683,0.3427,,,
250,2023/02/11 10:00,2,2,0,28.38,73.89,27.80,13883,516,0,16.51,26.29,1.6785,14.20,2.7707,0.3428,,,
251,2023/02/11 11:00,5,3,2,27.04,75.22,25.83,4579,551,0,16.67,26.32,1.6681,14.21,2.7505,0.3412,,,